When you browse on this site, cookies collect data to enhance your experience and personalize the content and advertising you see.
Visit our Privacy Policy to learn more. By continuing to use the site, you agree to this use of cookies and data.
  • In Sweden
  • List of Countries
  • For 7 days
  • Water Temperature
  • Satellite Maps
  • Weather Map
  • Weather Widgets
  • user-avatar
    Login

    Hourly Weather Newcastle

    Today, 22 January, Tuesday

    Time Temperature Precipitation Wind Pressure Humidity
    00:00 +2°C° 1.1 mm 6 mps 739 mmHg 90%
    01:00 +1°C° 0 mm 5 mps 739 mmHg 89%
    02:00 0°C° 0 mm 5 mps 738 mmHg 87%
    03:00 -1°C° 0 mm 4 mps 738 mmHg 86%
    04:00 -1°C° 0 mm 4 mps 738 mmHg 86%
    05:00 -1°C° 0 mm 4 mps 738 mmHg 87%
    06:00 -2°C° 0 mm 4 mps 737 mmHg 87%
    07:00 -2°C° 0 mm 4 mps 737 mmHg 86%
    08:00 -1°C° 0 mm 4 mps 737 mmHg 86%
    09:00 -1°C° 0 mm 4 mps 737 mmHg 85%
    10:00 0°C° 0 mm 4 mps 737 mmHg 81%
    11:00 +1°C° 0 mm 4 mps 737 mmHg 77%
    12:00 +3°C° 0 mm 4 mps 736 mmHg 73%
    13:00 +1°C° 0.4 mm 4 mps 736 mmHg 75%
    14:00 +1°C° 0.4 mm 4 mps 735 mmHg 78%
    15:00 +2°C° 0.4 mm 3 mps 735 mmHg 81%
    16:00 +1°C° 0.1 mm 3 mps 735 mmHg 84%
    17:00 0°C° 0.1 mm 3 mps 735 mmHg 86%
    18:00 -1°C° 0.1 mm 3 mps 735 mmHg 89%
    19:00 -1°C° 0 mm 3 mps 735 mmHg 89%
    20:00 -1°C° 0 mm 2 mps 735 mmHg 90%
    21:00 -1°C° 0 mm 2 mps 735 mmHg 90%
    22:00 -2°C° 0 mm 2 mps 735 mmHg 90%
    23:00 -2°C° 0 mm 2 mps 735 mmHg 90%

    Tomorrow, 23 January, Wednesday

    Time Temperature Precipitation Wind Pressure Humidity
    00:00 -2°C° 0 mm 3 mps 735 mmHg 91%
    01:00 -2°C° 0 mm 3 mps 736 mmHg 91%
    02:00 -2°C° 0 mm 2 mps 736 mmHg 91%
    03:00 -2°C° 0 mm 2 mps 736 mmHg 91%
    04:00 -3°C° 0 mm 2 mps 737 mmHg 89%
    05:00 -3°C° 0 mm 2 mps 737 mmHg 88%
    06:00 -3°C° 0 mm 2 mps 737 mmHg 87%
    07:00 -3°C° 0 mm 2 mps 738 mmHg 85%
    08:00 -4°C° 0 mm 3 mps 739 mmHg 83%
    09:00 -4°C° 0 mm 3 mps 739 mmHg 81%
    10:00 -2°C° 0 mm 3 mps 740 mmHg 76%
    11:00 0°C° 0 mm 3 mps 740 mmHg 71%
    12:00 +1°C° 0 mm 3 mps 741 mmHg 66%
    13:00 +1°C° 0 mm 3 mps 741 mmHg 68%
    14:00 +1°C° 0 mm 3 mps 742 mmHg 69%
    15:00 +2°C° 0 mm 2 mps 742 mmHg 71%
    16:00 +1°C° 0 mm 2 mps 742 mmHg 72%
    17:00 +1°C° 0 mm 1 mps 743 mmHg 74%
    18:00 0°C° 0 mm 1 mps 743 mmHg 76%
    19:00 0°C° 0 mm 1 mps 744 mmHg 75%
    20:00 0°C° 0 mm 1 mps 744 mmHg 75%
    21:00 0°C° 0 mm 1 mps 745 mmHg 75%
    22:00 0°C° 0 mm 1 mps 745 mmHg 77%
    23:00 0°C° 0 mm 1 mps 745 mmHg 79%

    Day after tomorrow, 24 January, Thursday

    Time Temperature Precipitation Wind Pressure Humidity
    00:00 0°C° 0 mm 1 mps 746 mmHg 81%
    01:00 0°C° 0 mm 1 mps 746 mmHg 83%
    02:00 0°C° 0 mm 1 mps 746 mmHg 85%
    03:00 0°C° 0 mm 1 mps 746 mmHg 87%
    04:00 -2°C° 0 mm 2 mps 746 mmHg 88%
    05:00 -1°C° 0 mm 2 mps 746 mmHg 88%
    06:00 -1°C° 0 mm 2 mps 746 mmHg 89%
    07:00 -1°C° 0 mm 2 mps 746 mmHg 89%
    08:00 -1°C° 0 mm 2 mps 746 mmHg 90%
    09:00 +1°C° 0 mm 2 mps 746 mmHg 90%
    10:00 +1°C° 0.1 mm 3 mps 746 mmHg 90%
    11:00 +1°C° 0.1 mm 3 mps 746 mmHg 89%
    12:00 +2°C° 0.1 mm 3 mps 746 mmHg 89%
    13:00 +2°C° 0.2 mm 3 mps 746 mmHg 91%
    14:00 +1°C° 0.2 mm 4 mps 746 mmHg 94%
    15:00 +1°C° 0.2 mm 4 mps 745 mmHg 96%
    16:00 +2°C° 0.1 mm 3 mps 745 mmHg 97%
    17:00 +2°C° 0.1 mm 3 mps 745 mmHg 97%
    18:00 +4°C° 0.1 mm 2 mps 746 mmHg 98%
    19:00 +4°C° 0.1 mm 3 mps 746 mmHg 98%
    20:00 +5°C° 0.1 mm 4 mps 746 mmHg 97%
    21:00 +5°C° 0.1 mm 4 mps 746 mmHg 97%
    22:00 +6°C° 0.1 mm 4 mps 746 mmHg 97%
    23:00 +6°C° 0.1 mm 5 mps 746 mmHg 97%

    25 January, Friday

    Time Temperature Precipitation Wind Pressure Humidity
    00:00 +6°C° 0.1 mm 5 mps 746 mmHg 97%
    01:00 +6°C° 0 mm 5 mps 746 mmHg 97%
    02:00 +6°C° 0 mm 5 mps 746 mmHg 97%
    03:00 +6°C° 0 mm 5 mps 746 mmHg 97%
    04:00 +6°C° 0 mm 4 mps 746 mmHg 97%
    05:00 +6°C° 0 mm 4 mps 746 mmHg 96%
    06:00 +6°C° 0 mm 4 mps 746 mmHg 96%
    07:00 +5°C° 0 mm 4 mps 746 mmHg 96%
    08:00 +5°C° 0 mm 4 mps 746 mmHg 95%
    09:00 +5°C° 0 mm 4 mps 746 mmHg 95%
    10:00 +6°C° 0 mm 4 mps 745 mmHg 91%
    11:00 +6°C° 0 mm 5 mps 745 mmHg 88%
    12:00 +7°C° 0 mm 5 mps 745 mmHg 84%
    13:00 +7°C° 0 mm 5 mps 744 mmHg 85%
    14:00 +7°C° 0 mm 5 mps 743 mmHg 86%
    15:00 +7°C° 0 mm 5 mps 742 mmHg 86%
    16:00 +7°C° 0.2 mm 5 mps 742 mmHg 88%
    17:00 +7°C° 0.2 mm 6 mps 741 mmHg 89%
    18:00 +7°C° 0.2 mm 6 mps 741 mmHg 91%
    19:00 +6°C° 0.1 mm 5 mps 741 mmHg 90%
    20:00 +5°C° 0.1 mm 5 mps 741 mmHg 89%
    21:00 +5°C° 0.1 mm 4 mps 741 mmHg 88%
    22:00 +4°C° 0.1 mm 3 mps 740 mmHg 89%
    23:00 +4°C° 0.1 mm 3 mps 740 mmHg 90%

    26 January, Saturday

    Time Temperature Precipitation Wind Pressure Humidity
    00:00 +4°C° 0.1 mm 2 mps 739 mmHg 90%
    01:00 +4°C° 0.2 mm 2 mps 739 mmHg 90%
    02:00 +4°C° 0.2 mm 2 mps 738 mmHg 89%
    03:00 +5°C° 0.2 mm 1 mps 738 mmHg 89%
    04:00 +4°C° 0.4 mm 2 mps 738 mmHg 89%
    05:00 +4°C° 0.4 mm 2 mps 737 mmHg 90%
    06:00 +3°C° 0.4 mm 2 mps 737 mmHg 90%
    07:00 +3°C° 0.1 mm 2 mps 737 mmHg 89%
    08:00 +2°C° 0.1 mm 3 mps 738 mmHg 87%
    09:00 +2°C° 0.1 mm 3 mps 738 mmHg 86%
    10:00 +3°C° 0 mm 4 mps 738 mmHg 82%
    11:00 +2°C° 0 mm 5 mps 738 mmHg 77%
    12:00 +3°C° 0 mm 6 mps 738 mmHg 73%
    13:00 +3°C° 0 mm 6 mps 739 mmHg 72%
    14:00 +3°C° 0 mm 6 mps 739 mmHg 72%
    15:00 +3°C° 0 mm 6 mps 739 mmHg 72%
    16:00 +2°C° 0 mm 6 mps 739 mmHg 73%
    17:00 +1°C° 0 mm 5 mps 740 mmHg 74%
    18:00 0°C° 0 mm 5 mps 740 mmHg 75%
    19:00 0°C° 0 mm 5 mps 741 mmHg 74%
    20:00 -1°C° 0 mm 5 mps 741 mmHg 74%
    21:00 -1°C° 0 mm 5 mps 742 mmHg 73%
    22:00 -1°C° 0 mm 4 mps 742 mmHg 74%
    23:00 -2°C° 0 mm 4 mps 742 mmHg 75%

    27 January, Sunday

    Time Temperature Precipitation Wind Pressure Humidity
    00:00 -2°C° 0 mm 4 mps 742 mmHg 76%
    01:00 -2°C° 0 mm 4 mps 742 mmHg 77%
    02:00 -2°C° 0 mm 4 mps 742 mmHg 78%
    03:00 -2°C° 0 mm 4 mps 742 mmHg 78%
    04:00 -1°C° 0 mm 3 mps 742 mmHg 78%
    05:00 -1°C° 0 mm 3 mps 742 mmHg 78%
    06:00 -1°C° 0 mm 3 mps 742 mmHg 79%
    07:00 -1°C° 0 mm 3 mps 742 mmHg 78%
    08:00 -1°C° 0 mm 3 mps 742 mmHg 78%
    09:00 -1°C° 0 mm 3 mps 742 mmHg 78%
    10:00 -1°C° 0 mm 4 mps 743 mmHg 70%
    11:00 0°C° 0 mm 4 mps 743 mmHg 63%
    12:00 +1°C° 0 mm 5 mps 743 mmHg 56%
    13:00 +1°C° 0 mm 5 mps 742 mmHg 57%
    14:00 +1°C° 0 mm 5 mps 742 mmHg 58%
    15:00 +1°C° 0 mm 4 mps 742 mmHg 59%
    16:00 0°C° 0 mm 4 mps 743 mmHg 62%
    17:00 0°C° 0 mm 3 mps 743 mmHg 66%
    18:00 -2°C° 0 mm 3 mps 743 mmHg 69%
    19:00 -2°C° 0 mm 3 mps 744 mmHg 70%
    20:00 -2°C° 0 mm 3 mps 744 mmHg 70%
    21:00 -2°C° 0 mm 3 mps 745 mmHg 71%
    22:00 -2°C° 0 mm 3 mps 745 mmHg 71%
    23:00 -2°C° 0 mm 3 mps 746 mmHg 72%
    Show more